星链-3393 (STARLINK-3393 )

导读 | 豆包AI

STARLINK-3393是美国太空探索技术公司(SpaceX)星链星座中的一颗低轨通信卫星,于2022年1月19日发射入轨。星链项目旨在通过大规模低轨卫星星座,为全球尤其是偏远地区提供高速低延迟的互联网接入服务。该卫星采用平板设计,搭载霍尔推进器,具备自主避撞能力,服役期满后会主动离轨再入大气层烧毁,目前处于在轨运行状态,支撑星链全球通信网络服务。

基本信息
目录编号:
51132
目录名称:
STARLINK-3393
国际标识:
2022-005AE
轨道中心:
EARTH
卫星名称:
星链-3393
卫星全名:
星链-3393 (STARLINK-3393 )
卫星状态:
在轨 (已飞行1563 天)
发射日期:
2022-01-19 UTC
国别 :
美国 (US)
星等 :
--
轨道信息
数据来源 国际轨道数据 AOE轨道数据
星历时间 2026-04-30T21:00:31+0800
12小时前
查看轨道信息
2026-04-30T21:00:00+0800
12小时前
查看轨道信息
半长轴 6917.907km 6917.847km
偏心率 0.0001273 0.0001325
轨道倾角 53.218° 53.217°
近地点辐角 80.921° 81.124°
升交点赤经 66.346° 66.350°
平近点角 279.193° 277.059°
近地点 538.889km 538.793km
远地点 540.651km 540.627km
周期 95.438分钟 95.437分钟
每日圈数 15.088313 15.088511
详细信息
固有亮度:
5
最大亮度:
2.5
卫星平台:
Starlink v1.5
覆盖范围:
全球
运营商:
太空探索技术公司
运营商所在国:
美国
制造商(研发单位):
太空探索技术公司
制造商所在国:
美国
使用方式:
暂无
卫星简介
星链(Starlink)计划是由太空探索技术公司(SpaceX)提出的一个巨型低轨卫星互联网星座项目,计划在2019年至2024年间在太空搭建由约1.2万颗卫星组成的“星链”网络,其中1584颗将部署在地球上空550千米处的近地轨道,并从2020年开始工作。该卫星仍在工作。
2D轨道图
3D轨道图
轨道高度分析图
轨道倾角分析图
轨道综合分析图
查看轨道综合分析图